PROGRESS-MS 16 (47618 NORAD) Tracking and Keplerian Element Data

This shows tracking and keplerian element data for the satellite.

Feedback or suggestion? Click here.




ElementValue
Catalog47618
NamePROGRESS-MS 16
Epoch Orbit27176
Epoch Day59.58690953
Epoch Year2021
RAAN159.8699
Inclination51.646
Eccentricity0.0003165
Argument of Perigee60.611
Mean Anonmoly47.2414
Mean Motion15.49019682
Decay Rate1.77E-05
L11 47618U 21011A 21059.58690953 .00001770 00000-0 40256-4 0 9999
L22 47618 51.6460 159.8699 0003165 60.6110 47.2414 15.49019682271766

Live tracking and technical data element details for PROGRESS-MS 16 (NORAD 47618). PROGRESS-MS 16 can be tracked NOW for your location showing map with azimuth and elevation plus other details from your city location.

Track the satellite on the map from your city or location and see movement details for azimuth, elevation, latitude, longitude, range, height, and movement on the map or in text.







IsCatalogInMostPopularTable: catalog: 47618, numindb: 5
Update: records affected: 1



GetName: 47618 PROGRESS-MS 16

Hit Count: updated at: Mon, 01 Mar 2021 16:28:04 GMT